Weather History for Spirit of St Louis, MO

Change the Weather History Date:

Thursday, July 4, 2013

  Actual Average Record
Temperature  
Mean Temperature 73 °F -  
Max Temperature 84 °F 86 °F 102 °F (2012)
Min Temperature 62 °F 65 °F 55 °F (2014)
Cooling Degree Days 8    
Growing Degree Days 23 (Base 50)    
Moisture  
Dew Point 60 °F    
Average Humidity 65    
Maximum Humidity 87    
Minimum Humidity 43    
Precipitation  
Precipitation 0.00 in - - ()
Sea Level Pressure  
Sea Level Pressure 30.03 in    
Wind  
Wind Speed 2 mph (SE)    
Max Wind Speed 6 mph    
Max Gust Speed -    
Visibility 10 miles    
Events      
Averages and records for this station are not official NWS values.
T = Trace of Precipitation, MM = Missing Value Source: NWS Daily Summary

Daily Weather History Graph

Daily Weather History Graph

Search for Another Location

Airport:

Trip Planner

Search our weather history database for the weather conditions in past years. The results will help you decide how hot, cold, wet, or windy it might be!

Date:

Astronomy

Jul. 04, 2013 Rise Set
Actual Time 5:43 AM CDT 8:30 PM CDT
Civil Twilight 5:11 AM CDT 9:02 PM CDT
Nautical Twilight 4:32 AM CDT 9:41 PM CDT
Astronomical Twilight 3:46 AM CDT 10:26 PM CDT
Moon 2:59 AM CDT (7/4) 5:35 PM CDT (7/4)
Length of Visible Light 15h 50m
Length of Day
14h 47m
Waning Crescent, 11% of the Moon is Illuminated
Jul 4
Waning Crescent
Jul 8
New
Jul 15
First Quarter
Jul 22
Full
Jul 29
Last Quarter

Hourly Weather History & Observations

Time (CDT) Temp. Heat Index Dew Point Humidity Pressure Visibility Wind Dir Wind Speed Gust Speed Precip Events Conditions
12:54 AM 71.1 °F - 57.9 °F 63% 30.04 in 10.0 mi South 5.8 mph - N/A   Clear
1:54 AM 70.0 °F - 57.9 °F 65% 30.04 in 10.0 mi Calm Calm - N/A   Clear
2:54 AM 64.9 °F - 59.0 °F 81% 30.04 in 10.0 mi Calm Calm - N/A   Clear
3:54 AM 64.0 °F - 59.0 °F 84% 30.03 in 10.0 mi Calm Calm - N/A   Clear
4:54 AM 63.0 °F - 59.0 °F 87% 30.04 in 10.0 mi SE 4.6 mph - N/A   Clear
5:54 AM 62.1 °F - 57.9 °F 86% 30.05 in 10.0 mi Calm Calm - N/A   Clear
6:54 AM 64.0 °F - 60.1 °F 87% 30.06 in 10.0 mi Calm Calm - N/A   Clear
7:54 AM 70.0 °F - 61.0 °F 73% 30.07 in 10.0 mi Calm Calm - N/A   Clear
8:54 AM 73.9 °F - 61.0 °F 64% 30.07 in 10.0 mi Calm Calm - N/A   Clear
9:54 AM 78.1 °F - 60.1 °F 54% 30.07 in 10.0 mi Calm Calm - N/A   Clear
10:54 AM 79.0 °F - 60.1 °F 52% 30.06 in 10.0 mi Calm Calm - N/A   Partly Cloudy
11:54 AM 81.0 °F 81.7 °F 61.0 °F 50% 30.06 in 10.0 mi Calm Calm - N/A   Clear
12:54 PM 82.9 °F 83.3 °F 61.0 °F 47% 30.06 in 10.0 mi Variable 3.5 mph - N/A   Scattered Clouds
1:54 PM 82.9 °F 83.7 °F 62.1 °F 49% 30.04 in 10.0 mi Variable 3.5 mph - N/A   Mostly Cloudy
2:54 PM 82.9 °F 83.2 °F 60.1 °F 46% 30.03 in 10.0 mi Variable 5.8 mph - N/A   Mostly Cloudy
3:54 PM 84.0 °F 83.8 °F 59.0 °F 43% 30.01 in 10.0 mi ESE 3.5 mph - N/A   Mostly Cloudy
4:54 PM 84.0 °F 84.4 °F 61.0 °F 46% 30.00 in 10.0 mi SSE 4.6 mph - N/A   Scattered Clouds
5:54 PM 82.9 °F 83.2 °F 60.1 °F 46% 29.98 in 10.0 mi SSE 4.6 mph - N/A   Scattered Clouds
6:54 PM 82.0 °F 82.4 °F 60.1 °F 47% 29.99 in 10.0 mi SE 4.6 mph - N/A   Partly Cloudy
7:54 PM 79.0 °F - 62.1 °F 56% 29.99 in 10.0 mi Calm Calm - N/A   Clear
8:54 PM 72.0 °F - 64.0 °F 76% 30.00 in 10.0 mi SSE 3.5 mph - N/A   Clear
9:54 PM 70.0 °F - 63.0 °F 78% 30.01 in 10.0 mi Calm Calm - N/A   Clear
10:54 PM 68.0 °F - 63.0 °F 84% 30.01 in 5.0 mi Calm Calm - N/A   Haze
11:54 PM 66.9 °F - 62.1 °F 84% 30.01 in 6.0 mi Calm Calm - N/A   Haze